Weather History for KIZG - October, 2011

Change the Weather History Date:

Tuesday, October 18, 2011

  Actual Average Record
Temperature  
Mean Temperature 52 °F -  
Max Temperature 62 °F 55 °F 78 °F (1998)
Min Temperature 41 °F 31 °F 21 °F (1996)
Degree Days  
Heating Degree Days 14    
Growing Degree Days 2 (Base 50)    
Moisture  
Dew Point 40 °F    
Average Humidity 71    
Maximum Humidity 97    
Minimum Humidity 41    
Precipitation  
Precipitation 0.00 in - - ()
Sea Level Pressure  
Sea Level Pressure 29.81 in    
Wind  
Wind Speed 2 mph (SW)    
Max Wind Speed 9 mph    
Max Gust Speed 16 mph    
Visibility 10 miles    
Events      
Averages and records for this station are not official NWS values.
T = Trace of Precipitation, MM = Missing Value Source: NWS Daily Summary

Daily Weather History Graph

Daily Weather History Graph

Search for Another Location

Airport or City:

Trip Planner

Search our weather history database for the weather conditions in past years. The results will help you decide how hot, cold, wet, or windy it might be!

Date:

Astronomy

Oct. 18, 2011 Rise Set
Actual Time 7:01 AM EDT 5:55 PM EDT
Civil Twilight 6:32 AM EDT 6:24 PM EDT
Nautical Twilight 5:59 AM EDT 6:58 PM EDT
Astronomical Twilight 5:25 AM EDT 7:31 PM EDT
Moon 10:26 PM EDT (10/18) 12:58 PM EDT (10/18)
Length of Visible Light 11h 52m
Length of Day
10h 53m
Waning Gibbous, 65% of the Moon is Illuminated
Oct 18
Waning Gibbous
Oct 19
Last Quarter
Oct 26
New
Nov 2
First Quarter
Nov 10
Full

Hourly Weather History & Observations

Time (EDT) Temp. Windchill Dew Point Humidity Pressure Visibility Wind Dir Wind Speed Gust Speed Precip Events Conditions
12:54 AM 48.0 °F - 42.1 °F 80% 29.68 in 10.0 mi Calm Calm - N/A   Overcast
2:54 AM 46.9 °F - 41.0 °F 80% 29.67 in 10.0 mi Calm Calm - N/A   Overcast
3:54 AM 44.1 °F 42.5 °F 41.0 °F 89% 29.68 in 10.0 mi South 3.5 mph - N/A   Overcast
4:54 AM 46.0 °F 43.9 °F 39.0 °F 76% 29.70 in 10.0 mi SSW 4.6 mph - N/A   Clear
5:54 AM 45.0 °F 41.8 °F 37.9 °F 76% 29.71 in 10.0 mi SW 5.8 mph - N/A   Clear
6:54 AM 46.9 °F - 39.0 °F 74% 29.73 in 10.0 mi SSW 4.6 mph - N/A   Partly Cloudy
7:54 AM 46.9 °F - 39.0 °F 74% 29.76 in 10.0 mi Calm Calm - N/A   Partly Cloudy
8:54 AM 53.1 °F - 41.0 °F 64% 29.77 in 10.0 mi Calm Calm - N/A   Clear
10:54 AM 55.9 °F - 39.0 °F 53% 29.79 in 10.0 mi SW 9.2 mph - N/A   Mostly Cloudy
11:54 AM 57.0 °F - 39.9 °F 53% 29.81 in 10.0 mi WSW 5.8 mph 16.1 mph N/A   Scattered Clouds
12:54 PM 57.0 °F - 37.9 °F 49% 29.80 in 10.0 mi WSW 9.2 mph - N/A   Partly Cloudy
1:54 PM 62.1 °F - 37.9 °F 41% 29.81 in 10.0 mi WSW 8.1 mph - N/A   Partly Cloudy
2:54 PM 61.0 °F - 37.9 °F 42% 29.81 in 10.0 mi Variable 4.6 mph - N/A   Mostly Cloudy
3:54 PM 59.0 °F - 39.0 °F 48% 29.83 in 10.0 mi SSW 3.5 mph - N/A   Overcast
4:54 PM 57.0 °F - 39.9 °F 53% 29.84 in 10.0 mi Calm Calm - N/A   Partly Cloudy
5:54 PM 53.1 °F - 42.1 °F 66% 29.88 in 10.0 mi Calm Calm - N/A   Partly Cloudy
6:54 PM 48.0 °F - 44.1 °F 86% 29.90 in 10.0 mi Calm Calm - N/A   Clear
8:54 PM 41.0 °F - 39.9 °F 96% 29.93 in 10.0 mi Calm Calm - N/A   Clear
9:54 PM 43.0 °F - 42.1 °F 97% 29.95 in 10.0 mi Calm Calm - N/A   Clear
10:54 PM 42.1 °F - 41.0 °F 96% 29.96 in 10.0 mi Calm Calm - N/A   Clear
11:54 PM 41.0 °F - 39.9 °F 96% 29.97 in 10.0 mi Calm Calm - N/A   Clear